QPF
0.00 0.00 0.01 0.01 0.00 0.00 0.01 0.02 0.01 0.01 0.01 0.01 0.01 0.01 0.00 0.00 0.02 0.03 0.04 0.03 0.02 0.01 0.00 0.00 0.00 0.01 0.25 0.17 0.01 0.01 0.00 0.00 0.00 0.00 0.01 0.01 0.00 0.00 0.00 0.00 0.00 0.00 0.00 0.00 0.00 0.00 0.00
0.00 0.01 0.01 0.00 0.00 0.01 0.02 0.02 0.01 0.01 0.00 0.01 0.01 0.01 0.01 0.01 0.03 0.03 0.04 0.05 0.04 0.02 0.01 0.00 0.00 0.02 0.22 0.06 0.01 0.00 0.00 0.00 0.00 0.00 0.01 0.00 0.00 0.00 0.00 0.00 0.00 0.00 0.00 0.00 0.00 0.00 0.00
0.00 0.01 0.00 0.01 0.01 0.01 0.01 0.01 0.01 0.01 0.01 0.01 0.01 0.01 0.02 0.01 0.02 0.03 0.03 0.07 0.07 0.01 0.01 0.00 0.01 0.03 0.13 0.05 0.00 0.00 0.00 0.05 0.02 0.02 0.00 0.00 0.00 0.00 0.00 0.00 0.00 0.00 0.00 0.00 0.00 0.00 0.00
0.01 0.01 0.00 0.01 0.00 0.01 0.01 0.01 0.02 0.01 0.01 0.01 0.01 0.02 0.01 0.01 0.01 0.02 0.03 0.04 0.03 0.01 0.00 0.00 0.01 0.08 0.06 0.01 0.02 0.00 0.00 0.09 0.13 0.16 0.09 0.03 0.00 0.00 0.00 0.00 0.00 0.00 0.00 0.00 0.00 0.00 0.00
0.01 0.00 0.01 0.00 0.01 0.02 0.02 0.02 0.01 0.01 0.01 0.01 0.01 0.02 0.01 0.01 0.00 0.01 0.02 0.01 0.01 0.02 0.01 0.01 0.01 0.11 0.07 0.00 0.03 0.00 0.00 0.06 0.09 0.14 0.15 0.12 0.07 0.01 0.00 0.00 0.00 0.00 0.00 0.00 0.00 0.00 0.00
0.00 0.01 0.00 0.00 0.01 0.02 0.02 0.01 0.01 0.01 0.02 0.03 0.02 0.01 0.00 0.00 0.00 0.00 0.02 0.00 0.00 0.00 0.00 0.01 0.01 0.10 0.06 0.00 0.02 0.00 0.00 0.01 0.02 0.08 0.15 0.09 0.09 0.03 0.00 0.00 0.00 0.00 0.00 0.00 0.00 0.00 0.00
0.00 0.00 0.00 0.01 0.02 0.02 0.02 0.01 0.02 0.02 0.02 0.02 0.03 0.02 0.00 0.00 0.00 0.02 0.02 0.00 0.00 0.01 0.01 0.00 0.00 0.03 0.02 0.00 0.03 0.01 0.00 0.01 0.03 0.06 0.31 0.24 0.06 0.03 0.00 0.00 0.00 0.00 0.00 0.00 0.00 0.00 0.00
0.00 0.00 0.00 0.01 0.01 0.02 0.01 0.01 0.02 0.02 0.01 0.02 0.01 0.00 0.00 0.00 0.01 0.04 0.02 0.00 0.00 0.00 0.00 0.00 0.00 0.01 0.01 0.01 0.04 0.01 0.00 0.00 0.02 0.03 0.17 0.35 0.04 0.08 0.02 0.00 0.00 0.00 0.00 0.00 0.00 0.00 0.00
0.00 0.00 0.00 0.00 0.01 0.02 0.00 0.01 0.02 0.01 0.02 0.03 0.03 0.01 0.01 0.00 0.01 0.00 0.00 0.00 0.00 0.00 0.00 0.00 0.01 0.02 0.04 0.03 0.05 0.00 0.00 0.00 0.02 0.03 0.02 0.07 0.03 0.03 0.08 0.04 0.02 0.01 0.00 0.00 0.00 0.00 0.00
0.00 0.00 0.00 0.00 0.01 0.01 0.00 0.01 0.00 0.02 0.05 0.05 0.04 0.04 0.03 0.03 0.01 0.01 0.03 0.06 0.00 0.00 0.00 0.00 0.01 0.06 0.08 0.01 0.08 0.00 0.00 0.01 0.02 0.05 0.03 0.00 0.00 0.04 0.08 0.05 0.02 0.03 0.00 0.00 0.00 0.00 0.00
0.00 0.00 0.00 0.01 0.01 0.00 0.01 0.01 0.01 0.03 0.06 0.04 0.02 0.05 0.11 0.07 0.05 0.07 0.03 0.00 0.00 0.00 0.00 0.00 0.03 0.17 0.11 0.00 0.05 0.00 0.01 0.00 0.00 0.01 0.03 0.01 0.00 0.01 0.08 0.02 0.00 0.00 0.00 0.00 0.00 0.00 0.00
0.00 0.00 0.00 0.00 0.01 0.00 0.01 0.00 0.01 0.03 0.06 0.02 0.01 0.02 0.03 0.05 0.13 0.07 0.00 0.00 0.00 0.00 0.00 0.02 0.06 0.31 0.07 0.00 0.01 0.00 0.02 0.00 0.00 0.00 0.01 0.00 0.00 0.00 0.00 0.00 0.00 0.00 0.00 0.00 0.00 0.00 0.00
0.00 0.00 0.00 0.00 0.00 0.00 0.00 0.01 0.01 0.01 0.03 0.01 0.01 0.00 0.01 0.00 0.02 0.00 0.00 0.00 0.00 0.01 0.03 0.09 0.21 0.20 0.01 0.01 0.01 0.02 0.01 0.00 0.01 0.00 0.01 0.00 0.00 0.00 0.00 0.00 0.00 0.00 0.00 0.00 0.00 0.00 0.00
0.00 0.00 0.00 0.00 0.00 0.00 0.00 0.00 0.00 0.00 0.01 0.01 0.00 0.00 0.00 0.00 0.00 0.00 0.00 0.00 0.02 0.02 0.14 0.16 0.21 0.07 0.04 0.02 0.02 0.03 0.01 0.00 0.00 0.00 0.00 0.00 0.00 0.00 0.00 0.00 0.00 0.00 0.00 0.00 0.00 0.00 0.00
0.00 0.00 0.00 0.00 0.00 0.00 0.00 0.00 0.00 0.00 0.00 0.01 0.00 0.00 0.00 0.00 0.00 0.00 0.00 0.00 0.01 0.08 0.21 0.23 0.06 0.05 0.04 0.01 0.02 0.04 0.00 0.00 0.00 0.00 0.00 0.00 0.00 0.00 0.00 0.00 0.00 0.00 0.00 0.00 0.00 0.00 0.00
0.00 0.00 0.00 0.00 0.00 0.00 0.00 0.00 0.00 0.00 0.00 0.00 0.00 0.00 0.00 0.00 0.00 0.00 0.01 0.04 0.06 0.07 0.08 0.03 0.04 0.03 0.01 0.01 0.00 0.01 0.00 0.00 0.00 0.00 0.00 0.00 0.00 0.00 0.00 0.00 0.00 0.00 0.00 0.00 0.00 0.00 0.00
0.00 0.00 0.00 0.00 0.00 0.00 0.00 0.00 0.00 0.00 0.00 0.00 0.00 0.00 0.00 0.00 0.00 0.00 0.02 0.07 0.10 0.05 0.02 0.00 0.00 0.00 0.00 0.00 0.00 0.00 0.00 0.00 0.00 0.00 0.00 0.00 0.00 0.00 0.00 0.00 0.00 0.00 0.00 0.00 0.00 0.00 0.00
0.00 0.00 0.00 0.00 0.00 0.00 0.00 0.00 0.00 0.00 0.00 0.00 0.00 0.00 0.00 0.00 0.00 0.00 0.00 0.00 0.00 0.00 0.00 0.00 0.00 0.00 0.00 0.00 0.00 0.00 0.00 0.00 0.00 0.00 0.00 0.00 0.00 0.00 0.00 0.00 0.00 0.00 0.00 0.00 0.00 0.00 0.00
0.00 0.00 0.00 0.00 0.00 0.00 0.00 0.00 0.00 0.00 0.00 0.00 0.00 0.00 0.00 0.00 0.00 0.00 0.00 0.00 0.00 0.00 0.00 0.00 0.00 0.00 0.00 0.00 0.00 0.00 0.00 0.00 0.00 0.00 0.00 0.00 0.00 0.00 0.00 0.00 0.00 0.00 0.00 0.00 0.00 0.00 0.00
0.00 0.00 0.00 0.00 0.00 0.00 0.00 0.00 0.00 0.00 0.00 0.00 0.00 0.00 0.00 0.00 0.00 0.00 0.00 0.00 0.00 0.00 0.00 0.00 0.00 0.00 0.00 0.00 0.00 0.00 0.00 0.00 0.00 0.00 0.00 0.00 0.00 0.00 0.00 0.00 0.00 0.00 0.00 0.00 0.00 0.00 0.00
0.00 0.00 0.00 0.00 0.00 0.00 0.00 0.00 0.00 0.00 0.00 0.00 0.00 0.00 0.00 0.00 0.00 0.00 0.00 0.00 0.00 0.00 0.00 0.00 0.00 0.00 0.00 0.00 0.00 0.00 0.00 0.00 0.00 0.00 0.00 0.00 0.00 0.00 0.00 0.00 0.00 0.00 0.00 0.00 0.00 0.00 0.00
0.00 0.00 0.00 0.00 0.00 0.00 0.00 0.00 0.00 0.00 0.00 0.00 0.00 0.00 0.00 0.00 0.00 0.00 0.00 0.00 0.00 0.00 0.00 0.00 0.00 0.00 0.00 0.00 0.00 0.00 0.00 0.00 0.00 0.00 0.00 0.00 0.00 0.00 0.00 0.00 0.00 0.00 0.00 0.00 0.00 0.00 0.00
0.00 0.00 0.00 0.01 0.00 0.00 0.00 0.00 0.00 0.00 0.00 0.00 0.00 0.00 0.00 0.00 0.00 0.00 0.00 0.00 0.00 0.00 0.00 0.00 0.00 0.00 0.00 0.00 0.00 0.00 0.00 0.00 0.00 0.00 0.00 0.00 0.00 0.00 0.00 0.00 0.00 0.00 0.00 0.00 0.00 0.00 0.00
0.00 0.00 0.00 0.00 0.00 0.00 0.00 0.00 0.00 0.00 0.00 0.00 0.00 0.00 0.00 0.00 0.00 0.00 0.00 0.00 0.00 0.00 0.00 0.00 0.00 0.00 0.00 0.00 0.00 0.00 0.00 0.00 0.00 0.00 0.00 0.00 0.00 0.00 0.00 0.00 0.00 0.00 0.00 0.00 0.00 0.00 0.00
0.00 0.00 0.00 0.00 0.00 0.00 0.00 0.00 0.00 0.00 0.00 0.00 0.00 0.00 0.00 0.00 0.00 0.00 0.00 0.00 0.00 0.00 0.00 0.00 0.00 0.00 0.00 0.00 0.00 0.00 0.00 0.00 0.00 0.00 0.00 0.00 0.00 0.00 0.00 0.00 0.00 0.00 0.00 0.00 0.00 0.00 0.00
0.00 0.00 0.00 0.00 0.00 0.00 0.00 0.00 0.00 0.00 0.00 0.00 0.00 0.00 0.01 0.00 0.00 0.00 0.00 0.00 0.00 0.00 0.00 0.00 0.00 0.00 0.00 0.00 0.00 0.00 0.00 0.00 0.00 0.00 0.00 0.00 0.00 0.00 0.00 0.00 0.00 0.00 0.00 0.00 0.00 0.00 0.00
0.00 0.00 0.00 0.00 0.00 0.00 0.00 0.00 0.00 0.00 0.00 0.00 0.00 0.01 0.02 0.01 0.00 0.00 0.00 0.00 0.00 0.00 0.00 0.00 0.00 0.00 0.00 0.00 0.00 0.00 0.00 0.00 0.00 0.00 0.00 0.00 0.00 0.00 0.00 0.00 0.00 0.00 0.00 0.00 0.00 0.00 0.00
0.00 0.00 0.00 0.00 0.00 0.00 0.00 0.01 0.00 0.00 0.00 0.00 0.00 0.03 0.10 0.03 0.00 0.00 0.00 0.00 0.00 0.00 0.00 0.00 0.00 0.00 0.00 0.00 0.00 0.00 0.00 0.00 0.00 0.00 0.00 0.00 0.00 0.00 0.00 0.00 0.00 0.00 0.00 0.00 0.00 0.00 0.00
0.00 0.00 0.00 0.00 0.01 0.01 0.00 0.00 0.00 0.03 0.01 0.00 0.00 0.04 0.09 0.06 0.00 0.00 0.00 0.00 0.00 0.00 0.00 0.00 0.00 0.00 0.00 0.00 0.00 0.00 0.00 0.00 0.00 0.00 0.00 0.00 0.00 0.00 0.00 0.00 0.00 0.00 0.00 0.00 0.00 0.00 0.00
MSLP
1021.53 1020.90 1020.49 1020.04 1019.66 1019.24 1018.69 1018.39 1017.87 1017.51 1016.95 1016.32 1015.93 1015.46 1015.24 1014.87 1014.66 1014.45 1014.12 1013.86 1013.59 1013.48 1013.28 1012.98 1012.89 1012.87 1012.85 1012.10 1010.52 1009.31 1008.99 1008.89 1009.76 1010.46 1011.14 1011.87 1012.64 1013.21 1013.59 1013.88 1014.05 1014.11 1013.92 1013.68 1013.33 1013.20 1013.30
1021.40 1020.87 1020.36 1019.91 1019.40 1018.88 1018.43 1018.10 1017.60 1017.11 1016.65 1016.23 1015.70 1015.29 1015.04 1014.63 1014.45 1014.16 1013.78 1013.52 1013.46 1013.27 1013.08 1012.69 1012.65 1012.65 1012.57 1010.68 1009.49 1009.38 1009.11 1008.99 1009.40 1010.04 1010.92 1011.69 1012.11 1012.53 1013.16 1013.46 1013.77 1013.61 1013.77 1013.55 1013.37 1013.38 1013.35
1021.27 1020.64 1020.12 1019.64 1019.26 1018.81 1018.28 1017.86 1017.38 1016.91 1016.31 1015.94 1015.52 1015.00 1014.73 1014.39 1014.13 1013.82 1013.53 1013.25 1013.14 1012.93 1012.67 1012.52 1012.44 1012.46 1011.53 1010.01 1009.36 1009.60 1009.32 1008.91 1009.42 1009.84 1010.57 1011.26 1011.58 1012.16 1012.76 1013.28 1013.24 1013.64 1013.96 1013.85 1013.47 1013.39 1013.44
1020.96 1020.53 1020.10 1019.29 1018.84 1018.52 1018.24 1017.68 1017.30 1016.67 1016.10 1015.53 1015.12 1014.64 1014.41 1014.18 1013.81 1013.52 1013.20 1013.01 1012.71 1012.50 1012.35 1012.34 1012.30 1012.28 1010.65 1009.34 1009.36 1009.59 1009.34 1009.28 1009.84 1010.01 1010.50 1010.95 1011.41 1012.19 1012.71 1012.89 1013.39 1014.02 1014.32 1014.24 1013.43 1013.37 1013.34
1020.91 1020.49 1019.94 1019.40 1018.96 1018.32 1018.00 1017.40 1016.95 1016.36 1015.71 1015.26 1014.92 1014.44 1014.08 1013.69 1013.40 1013.15 1012.93 1012.65 1012.20 1011.91 1011.84 1012.05 1012.32 1011.87 1010.46 1009.28 1009.61 1009.35 1009.68 1009.50 1009.95 1010.43 1010.75 1011.02 1011.69 1012.35 1012.86 1013.21 1013.99 1014.29 1014.52 1014.40 1013.93 1013.52 1013.55
1020.63 1020.16 1019.81 1019.40 1018.74 1018.23 1017.75 1017.19 1016.65 1016.03 1015.37 1015.02 1014.57 1014.16 1013.81 1013.46 1013.15 1012.94 1012.73 1012.33 1011.62 1011.35 1011.47 1011.85 1012.20 1012.38 1010.58 1009.46 1009.35 1009.37 1009.21 1009.44 1009.77 1010.67 1011.17 1011.58 1011.91 1012.35 1012.85 1013.22 1013.60 1014.15 1014.71 1014.53 1014.35 1014.01 1014.02
1020.93 1020.21 1019.64 1019.30 1018.68 1018.07 1017.49 1016.85 1016.44 1015.78 1015.23 1014.52 1013.88 1013.60 1013.31 1013.06 1012.82 1012.57 1012.72 1012.48 1012.29 1012.06 1011.77 1011.51 1011.47 1010.52 1009.42 1008.99 1008.89 1009.07 1009.17 1009.47 1009.76 1010.46 1010.71 1010.98 1011.33 1011.48 1012.15 1013.05 1013.36 1014.04 1014.46 1014.59 1014.63 1014.46 1014.49
1020.74 1020.22 1019.62 1019.28 1018.59 1017.92 1017.16 1016.64 1016.21 1015.43 1014.61 1014.06 1013.56 1013.11 1012.87 1012.61 1012.45 1012.36 1012.74 1012.82 1012.55 1012.75 1012.15 1011.12 1010.91 1010.12 1009.82 1009.38 1009.40 1009.54 1009.27 1009.69 1009.89 1010.49 1010.94 1010.88 1011.13 1011.69 1012.35 1012.90 1013.42 1014.08 1014.64 1014.85 1014.87 1014.85 1015.05
1020.86 1020.15 1019.49 1019.10 1018.44 1017.81 1017.23 1016.45 1015.83 1015.09 1014.45 1013.51 1012.88 1012.41 1012.18 1012.17 1012.06 1012.41 1012.70 1012.60 1012.38 1012.55 1012.40 1011.26 1010.72 1010.46 1009.91 1009.78 1009.69 1009.67 1009.62 1009.65 1009.86 1010.63 1011.08 1011.06 1011.36 1011.69 1012.41 1013.01 1013.65 1014.37 1014.82 1015.18 1015.55 1015.71 1015.93
1020.88 1020.32 1019.53 1018.83 1018.27 1017.80 1017.18 1016.36 1015.74 1014.99 1014.06 1013.09 1011.98 1011.10 1011.13 1011.62 1012.22 1012.27 1012.43 1012.29 1012.45 1012.48 1012.59 1011.79 1010.92 1009.95 1009.61 1009.23 1009.85 1009.65 1009.57 1009.76 1010.24 1010.76 1011.11 1011.54 1011.76 1012.06 1012.79 1013.24 1013.91 1014.55 1014.95 1015.58 1016.08 1016.57 1017.49
1020.62 1020.27 1019.60 1018.97 1018.26 1017.74 1017.14 1016.37 1015.74 1014.90 1013.84 1012.65 1011.53 1010.52 1010.51 1011.40 1011.83 1012.21 1012.31 1012.17 1012.28 1012.61 1012.44 1011.70 1010.84 1010.25 1009.62 1009.73 1009.97 1009.93 1009.72 1009.57 1010.37 1010.91 1011.64 1012.42 1012.07 1012.48 1013.12 1013.34 1013.99 1014.88 1015.36 1016.18 1016.99 1017.83 1018.38
1020.69 1020.17 1019.57 1019.03 1018.56 1017.93 1017.27 1016.49 1015.83 1014.93 1013.99 1012.96 1012.09 1011.46 1011.39 1011.80 1012.17 1012.14 1012.30 1012.30 1012.68 1013.06 1012.58 1011.49 1010.72 1010.47 1009.68 1009.76 1009.92 1010.17 1010.26 1010.04 1010.53 1011.43 1012.11 1012.45 1012.53 1012.95 1013.24 1013.79 1014.08 1015.13 1016.02 1017.13 1018.30 1018.97 1019.34
1020.83 1020.19 1019.69 1019.05 1018.55 1017.93 1017.30 1016.61 1015.90 1015.01 1014.21 1013.52 1012.93 1012.38 1012.11 1012.19 1012.44 1012.22 1012.25 1012.73 1013.30 1012.95 1012.49 1011.60 1010.88 1010.02 1009.80 1010.08 1010.43 1010.69 1010.71 1010.88 1011.31 1012.21 1012.98 1013.30 1013.60 1013.45 1013.61 1014.45 1015.10 1015.52 1016.56 1018.39 1019.67 1020.12 1019.76
1020.77 1020.22 1019.81 1019.22 1018.63 1017.96 1017.30 1016.73 1016.09 1015.35 1014.41 1013.74 1013.34 1013.11 1013.11 1012.88 1012.63 1012.50 1012.62 1013.06 1013.37 1013.05 1012.11 1011.47 1010.83 1010.47 1010.27 1010.53 1011.11 1011.16 1011.21 1011.79 1012.15 1012.50 1013.64 1013.98 1014.54 1013.95 1014.15 1014.48 1015.27 1016.34 1017.04 1018.76 1019.87 1020.79 1020.26
1020.72 1020.21 1019.78 1019.32 1018.68 1018.11 1017.58 1017.02 1016.25 1015.58 1014.64 1013.84 1013.50 1013.90 1013.65 1013.45 1013.26 1013.15 1013.33 1013.40 1013.91 1013.21 1012.31 1011.33 1010.97 1010.94 1011.10 1011.25 1011.26 1012.06 1012.02 1012.24 1012.76 1012.75 1013.38 1014.30 1014.69 1014.53 1014.58 1014.71 1015.38 1016.72 1017.71 1018.79 1020.11 1021.27 1020.72
1020.76 1020.24 1019.76 1019.33 1018.80 1018.24 1017.72 1017.14 1016.33 1015.61 1014.92 1014.00 1013.98 1014.41 1013.67 1013.26 1013.20 1013.34 1013.35 1013.64 1013.63 1013.06 1012.00 1011.32 1011.10 1011.47 1011.87 1011.80 1011.88 1012.28 1012.24 1012.49 1012.79 1012.96 1013.07 1014.16 1014.93 1015.12 1015.22 1015.24 1015.99 1016.40 1017.80 1019.25 1020.36 1021.04 1020.41
1020.79 1020.35 1019.82 1019.41 1018.95 1018.38 1017.74 1017.29 1016.41 1015.54 1014.85 1014.29 1014.43 1014.50 1013.48 1012.90 1013.32 1013.71 1013.62 1013.37 1013.10 1012.28 1011.75 1010.94 1011.18 1011.41 1011.97 1012.19 1012.03 1012.32 1012.61 1012.84 1012.67 1013.16 1013.11 1014.05 1014.91 1015.93 1015.76 1016.23 1016.63 1017.20 1017.96 1019.25 1020.08 1020.84 1020.50
1020.61 1020.34 1019.91 1019.51 1019.03 1018.55 1017.88 1017.38 1016.70 1015.74 1014.90 1014.64 1014.95 1014.79 1013.54 1013.20 1013.45 1013.58 1013.59 1013.13 1012.69 1011.96 1011.19 1010.69 1010.72 1011.08 1011.57 1011.87 1012.17 1012.38 1012.61 1012.65 1012.66 1012.92 1013.69 1014.37 1015.31 1016.30 1016.43 1016.38 1016.53 1016.80 1018.09 1019.10 1020.09 1021.22 1020.98
1020.62 1020.23 1019.88 1019.54 1019.11 1018.63 1018.09 1017.49 1016.86 1016.05 1015.32 1015.09 1015.38 1014.86 1013.69 1013.55 1013.96 1013.58 1013.10 1012.61 1012.18 1011.45 1010.96 1010.49 1010.57 1010.73 1011.17 1011.77 1012.39 1012.55 1012.62 1012.81 1012.75 1013.05 1013.62 1014.43 1015.89 1017.14 1017.43 1017.43 1017.34 1017.64 1018.05 1018.82 1019.74 1020.43 1020.84
1020.54 1020.22 1019.86 1019.43 1019.11 1018.66 1018.15 1017.68 1016.99 1016.19 1015.40 1015.36 1015.65 1015.39 1014.64 1014.06 1014.24 1013.94 1013.26 1012.39 1011.74 1011.21 1010.91 1010.59 1010.81 1010.77 1011.31 1012.07 1012.22 1012.66 1012.93 1012.96 1012.98 1013.26 1013.70 1014.35 1016.05 1016.87 1017.34 1017.29 1017.49 1017.68 1017.81 1018.58 1019.13 1020.39 1019.86
1020.54 1020.17 1019.88 1019.46 1019.24 1018.79 1018.25 1017.83 1017.09 1016.40 1015.47 1015.48 1015.96 1016.15 1015.66 1015.11 1014.24 1013.89 1013.33 1012.53 1011.93 1011.58 1011.00 1010.75 1011.04 1011.19 1011.51 1012.39 1012.65 1012.89 1013.18 1013.31 1013.50 1013.72 1014.31 1015.06 1016.50 1017.23 1017.31 1017.26 1017.39 1017.34 1017.55 1018.10 1018.48 1018.49 1018.40
1020.48 1020.22 1019.95 1019.56 1019.30 1018.89 1018.41 1018.03 1017.44 1016.72 1015.81 1015.93 1016.28 1016.25 1015.66 1015.33 1014.61 1014.00 1013.39 1012.67 1012.11 1011.86 1011.54 1011.38 1011.50 1011.66 1011.61 1012.29 1012.56 1012.89 1013.01 1013.33 1013.66 1014.35 1014.92 1015.70 1017.04 1017.65 1017.79 1017.37 1017.27 1017.19 1016.88 1017.08 1017.34 1017.39 1016.96
1020.49 1020.29 1019.92 1019.53 1019.31 1018.96 1018.53 1018.20 1017.81 1017.30 1016.95 1017.13 1016.87 1016.30 1016.07 1015.27 1014.91 1014.30 1013.73 1012.86 1012.14 1011.77 1011.93 1011.78 1011.87 1011.92 1012.13 1012.59 1012.60 1012.55 1012.84 1013.12 1013.43 1014.19 1015.14 1015.87 1016.94 1017.86 1017.93 1017.35 1016.79 1016.23 1014.92 1015.27 1015.56 1015.38 1015.06
1020.27 1020.16 1019.89 1019.50 1019.27 1019.01 1018.69 1018.32 1018.05 1017.70 1017.77 1018.03 1017.61 1017.15 1016.41 1015.59 1014.97 1014.28 1013.54 1012.89 1012.34 1011.87 1012.03 1012.26 1012.05 1012.24 1012.74 1012.62 1012.77 1012.94 1013.27 1013.65 1014.02 1014.56 1014.66 1015.78 1016.76 1017.53 1017.73 1017.03 1016.07 1013.90 1013.13 1013.24 1013.55 1013.43 1013.55
1020.15 1019.98 1019.74 1019.51 1019.12 1018.96 1018.63 1018.39 1018.12 1017.90 1017.71 1018.17 1017.83 1017.50 1016.66 1015.83 1015.13 1014.04 1013.43 1012.95 1012.76 1012.49 1012.41 1012.64 1012.65 1012.72 1012.65 1012.70 1013.24 1013.77 1014.24 1014.42 1014.75 1014.74 1014.76 1014.88 1016.01 1017.11 1017.42 1016.99 1015.14 1012.83 1012.44 1012.53 1012.61 1012.33 1012.02
1020.10 1019.92 1019.54 1019.34 1019.05 1018.75 1018.54 1018.34 1018.15 1017.90 1017.80 1017.94 1017.79 1017.50 1017.04 1016.27 1014.82 1014.17 1013.57 1013.06 1013.02 1013.07 1013.02 1012.87 1012.76 1012.62 1012.77 1013.31 1013.77 1014.06 1014.43 1014.51 1014.81 1015.01 1014.93 1015.08 1015.45 1016.51 1016.83 1016.42 1014.78 1012.57 1011.60 1011.25 1011.28 1011.57 1011.37
1019.90 1019.80 1019.50 1019.14 1018.85 1018.60 1018.41 1018.17 1018.00 1017.81 1017.65 1017.86 1017.94 1017.73 1017.49 1016.44 1014.49 1014.02 1013.63 1013.01 1012.77 1012.96 1013.18 1013.03 1012.85 1012.97 1013.12 1013.88 1014.41 1014.53 1014.47 1014.16 1014.47 1014.56 1014.91 1015.26 1015.58 1015.90 1015.94 1015.66 1013.96 1012.08 1011.36 1011.22 1011.32 1011.75 1011.06
1019.63 1019.52 1019.22 1018.87 1018.60 1018.37 1018.17 1017.95 1017.77 1017.54 1017.36 1017.52 1017.81 1017.62 1017.61 1016.69 1014.87 1013.97 1013.50 1013.18 1012.81 1012.71 1012.99 1013.00 1013.12 1013.32 1013.78 1014.28 1014.70 1014.66 1014.65 1014.31 1014.37 1014.26 1014.43 1014.60 1015.05 1015.09 1015.30 1015.03 1013.57 1011.64 1011.33 1011.36 1011.13 1010.72 1010.90
1019.32 1019.20 1018.92 1018.62 1018.28 1018.09 1017.85 1017.61 1017.38 1017.14 1017.02 1016.95 1017.63 1017.54 1017.48 1017.19 1015.42 1014.21 1013.46 1013.07 1012.87 1012.52 1012.65 1012.78 1012.81 1012.83 1013.26 1014.06 1014.56 1014.53 1014.49 1014.34 1014.22 1014.18 1014.18 1014.31 1013.89 1014.04 1013.96 1013.20 1011.99 1011.44 1011.36 1010.85 1010.81 1010.85 1010.90
Thickness
5555 5552 5545 5539 5533 5529 5524 5518 5513 5505 5498 5490 5481 5470 5456 5446 5434 5424 5415 5412 5414 5419 5432 5450 5465 5480 5490 5506 5532 5550 5558 5566 5569 5575 5579 5582 5585 5588 5591 5597 5602 5606 5615 5622 5631 5636 5640
5551 5546 5541 5534 5530 5525 5519 5511 5505 5496 5486 5475 5463 5449 5436 5427 5418 5410 5404 5403 5403 5407 5414 5432 5450 5465 5479 5508 5530 5540 5551 5560 5567 5571 5573 5576 5583 5588 5588 5592 5596 5605 5610 5617 5624 5629 5634
5547 5542 5537 5530 5524 5517 5512 5504 5496 5485 5474 5460 5444 5431 5422 5416 5411 5404 5400 5400 5399 5401 5406 5418 5437 5453 5474 5509 5526 5533 5545 5555 5560 5566 5569 5574 5581 5582 5586 5587 5597 5599 5601 5607 5615 5624 5626
5545 5538 5531 5528 5522 5514 5504 5497 5486 5475 5462 5448 5430 5420 5413 5409 5407 5403 5400 5398 5398 5399 5401 5411 5428 5446 5478 5509 5519 5527 5539 5546 5550 5558 5565 5570 5574 5573 5579 5588 5588 5586 5591 5590 5614 5618 5625
5538 5532 5526 5520 5514 5509 5499 5490 5479 5467 5453 5434 5416 5409 5406 5405 5404 5402 5400 5399 5399 5399 5400 5408 5424 5445 5476 5503 5513 5525 5531 5539 5543 5549 5555 5564 5563 5564 5570 5569 5569 5577 5573 5584 5601 5613 5619
5536 5530 5521 5515 5510 5505 5495 5485 5473 5460 5444 5422 5406 5401 5399 5400 5401 5400 5399 5400 5403 5402 5401 5408 5422 5436 5473 5498 5513 5519 5531 5537 5542 5544 5546 5549 5551 5554 5557 5568 5569 5575 5577 5581 5587 5604 5607
5527 5523 5518 5510 5506 5501 5492 5481 5467 5453 5434 5413 5402 5397 5396 5397 5398 5399 5397 5396 5391 5396 5398 5406 5429 5457 5481 5499 5510 5519 5528 5533 5539 5542 5549 5553 5555 5562 5571 5567 5572 5570 5572 5579 5585 5596 5600
5525 5519 5515 5507 5502 5496 5489 5478 5465 5449 5429 5408 5399 5398 5395 5396 5396 5396 5392 5390 5392 5390 5390 5415 5436 5459 5478 5494 5502 5510 5523 5528 5535 5540 5543 5547 5553 5560 5563 5567 5567 5567 5567 5574 5581 5587 5591
5519 5515 5511 5504 5499 5494 5485 5476 5463 5445 5425 5409 5403 5400 5399 5397 5396 5393 5390 5390 5392 5390 5394 5423 5444 5458 5479 5492 5502 5509 5521 5529 5534 5534 5537 5542 5550 5558 5557 5560 5563 5562 5564 5566 5572 5575 5576
5516 5509 5506 5503 5499 5491 5483 5474 5460 5444 5426 5412 5408 5409 5405 5400 5393 5392 5390 5391 5391 5391 5359 5426 5446 5471 5485 5499 5498 5512 5523 5527 5528 5531 5537 5539 5545 5552 5549 5553 5555 5551 5562 5564 5564 5566 5560
5515 5507 5504 5501 5497 5489 5482 5472 5460 5445 5436 5427 5419 5417 5412 5402 5397 5392 5393 5393 5393 5395 5339 5439 5457 5471 5490 5501 5502 5511 5521 5529 5525 5530 5535 5527 5543 5544 5544 5551 5554 5552 5553 5553 5551 5543 5548
5511 5505 5502 5497 5492 5488 5481 5471 5460 5451 5444 5436 5428 5418 5407 5399 5393 5392 5390 5393 5396 5380 5402 5448 5468 5472 5496 5503 5504 5511 5516 5527 5528 5526 5529 5533 5541 5542 5543 5540 5551 5545 5542 5531 5522 5525 5511
5507 5503 5498 5495 5491 5489 5481 5473 5465 5458 5452 5444 5436 5424 5412 5404 5395 5394 5397 5398 5381 5395 5440 5460 5468 5486 5502 5506 5507 5511 5516 5515 5518 5511 5506 5525 5527 5536 5538 5533 5537 5541 5541 5533 5504 5494 5525
5503 5499 5494 5491 5490 5488 5482 5476 5468 5463 5460 5453 5444 5434 5422 5418 5416 5413 5412 5410 5405 5442 5451 5466 5479 5492 5502 5508 5507 5510 5515 5512 5517 5515 5501 5503 5521 5532 5534 5536 5533 5529 5533 5505 5527 5514 5528
5500 5496 5491 5488 5488 5487 5482 5477 5471 5467 5466 5464 5456 5443 5436 5430 5427 5426 5424 5416 5422 5440 5452 5471 5486 5492 5494 5500 5509 5498 5508 5509 5513 5520 5520 5501 5507 5527 5530 5533 5536 5524 5501 5520 5493 5482 5476
5497 5492 5488 5485 5485 5484 5482 5479 5475 5472 5470 5470 5462 5449 5449 5448 5446 5443 5432 5451 5443 5447 5464 5487 5491 5488 5488 5497 5504 5500 5513 5514 5513 5517 5523 5515 5500 5522 5524 5530 5525 5530 5517 5501 5464 5499 5518
5491 5487 5483 5481 5481 5481 5480 5479 5477 5477 5476 5474 5466 5459 5465 5466 5462 5455 5462 5466 5463 5474 5481 5498 5491 5495 5491 5498 5508 5508 5510 5510 5519 5516 5522 5517 5512 5513 5523 5518 5513 5516 5501 5499 5498 5494 5512
5488 5482 5477 5476 5476 5478 5478 5478 5477 5479 5481 5478 5467 5458 5474 5473 5468 5467 5480 5478 5479 5490 5499 5508 5508 5507 5505 5507 5510 5510 5508 5516 5518 5521 5520 5517 5505 5510 5515 5515 5519 5525 5514 5503 5480 5483 5497
5482 5478 5472 5472 5472 5474 5475 5476 5477 5479 5480 5479 5470 5470 5481 5477 5478 5480 5479 5486 5491 5501 5507 5517 5518 5518 5515 5511 5508 5510 5511 5515 5518 5522 5520 5515 5486 5464 5504 5515 5510 5515 5514 5506 5495 5480 5454
5476 5472 5468 5470 5470 5470 5472 5473 5476 5478 5481 5478 5472 5470 5478 5479 5477 5480 5484 5497 5504 5504 5512 5515 5513 5519 5517 5509 5507 5507 5510 5513 5515 5523 5524 5518 5493 5495 5486 5500 5498 5496 5514 5505 5499 5471 5486
5470 5467 5464 5464 5464 5466 5468 5469 5473 5476 5481 5478 5469 5475 5478 5483 5492 5486 5491 5501 5506 5504 5516 5515 5520 5519 5517 5508 5510 5503 5508 5513 5514 5519 5511 5511 5483 5487 5500 5511 5492 5508 5517 5502 5490 5507 5490
5464 5461 5458 5458 5457 5459 5463 5463 5466 5471 5477 5476 5477 5473 5479 5477 5483 5490 5492 5505 5507 5507 5508 5516 5507 5508 5516 5513 5516 5503 5506 5510 5517 5510 5509 5501 5480 5477 5479 5509 5501 5501 5509 5508 5504 5511 5510
5456 5453 5453 5453 5451 5452 5455 5457 5458 5462 5464 5460 5465 5468 5472 5482 5475 5488 5492 5505 5512 5513 5511 5508 5511 5507 5505 5503 5507 5512 5512 5508 5512 5505 5501 5505 5480 5473 5474 5500 5505 5508 5517 5517 5512 5517 5532
5452 5446 5446 5446 5444 5445 5447 5450 5451 5452 5453 5452 5455 5458 5464 5472 5473 5484 5494 5502 5504 5510 5510 5503 5508 5508 5505 5506 5506 5507 5502 5502 5502 5498 5506 5492 5486 5480 5470 5494 5495 5539 5541 5533 5534 5539 5533
5445 5441 5439 5437 5438 5438 5440 5443 5445 5444 5445 5444 5446 5450 5460 5473 5467 5486 5495 5503 5502 5499 5501 5499 5499 5499 5499 5507 5503 5498 5496 5508 5500 5503 5508 5514 5502 5493 5492 5471 5502 5547 5541 5534 5537 5551 5547
5438 5434 5431 5430 5429 5430 5433 5435 5437 5438 5437 5436 5437 5440 5447 5459 5466 5478 5484 5496 5492 5490 5493 5498 5499 5498 5501 5492 5496 5509 5491 5501 5501 5500 5503 5507 5501 5488 5489 5500 5504 5542 5548 5548 5548 5543 5553
5431 5426 5425 5425 5424 5425 5427 5429 5430 5430 5430 5427 5425 5426 5428 5443 5465 5468 5469 5485 5489 5486 5483 5494 5499 5498 5496 5483 5488 5477 5493 5508 5503 5506 5502 5500 5498 5498 5503 5502 5501 5531 5542 5543 5538 5541 5551
5426 5422 5421 5420 5419 5421 5422 5424 5425 5424 5422 5418 5410 5407 5405 5415 5436 5456 5469 5475 5483 5484 5491 5487 5490 5488 5481 5483 5480 5477 5478 5496 5493 5501 5504 5505 5497 5501 5498 5496 5492 5535 5539 5539 5543 5549 5548
5423 5419 5417 5416 5417 5417 5418 5420 5420 5419 5416 5409 5393 5385 5382 5391 5423 5446 5459 5469 5477 5486 5485 5486 5493 5494 5491 5482 5470 5479 5496 5493 5496 5503 5495 5495 5496 5495 5499 5502 5526 5535 5538 5541 5541 5545 5546